Miscellaneous Local Product
Issued by NWS North Platte, NE

Home | Current Version | Previous Version | Graphics & Text | Print | Product List | Glossary On
Versions: 1 2 3 4 5 6 7 8 9 10 11 12 13 14 15 16 17 18 19 20 21 22 23 24 25 26 27 28 29 30 31 32 33 34 35 36 37 38 39 40 41 42 43 44 45 46 47 48 49 50
000
AXUS43 KLBF 271110
MISLBF


WESTERN AND NORTH CENTRAL NEBRASKA HOURLY WEATHER ROUNDUP
NATIONAL WEATHER SERVICE NORTH PLATTE NE
600 AM CDT SAT AUG 27 2016

NOTE: "FAIR" INDICATES FEW OR NO CLOUDS BELOW 12,000 FEET WITH NO
SIGNIFICANT WEATHER AND/OR OBSTRUCTIONS TO VISIBILITY.

NOTE: STATIONS NOT REPORTING VARIABLES SUCH AS SKY/WEATHER OR
PRESSURE ARE PROVIDED BY RAWS AND APRS NETWORKS AND ARE NOT UNDER
NATIONAL WEATHER SERVICE QUALITY CONTROL.

...OBSERVATIONS IN AND NEAR THE EASTERN PANHANDLE OF NEBRASKA...

CITY           SKY/WX    TMP DP  RH WIND       PRES   REMARKS
PINE RIDGE     CLEAR     51  51 100 E5        30.02F
CHADRON        CLEAR     50  49  96 CALM      30.01F
ALLIANCE       FOG       54  54 100 S9        30.05S VSB 3/4
SIDNEY         FOG       51  50  96 E6        30.08S VSB 1/4
CRESCENT LAKE    N/A     55  55 100 SE3         N/A
$$

...OBSERVATIONS IN NORTHERN NEBRASKA AND FAR SOUTHERN SOUTH DAKOTA...

CITY           SKY/WX    TMP DP  RH WIND       PRES   REMARKS
WINNER         FAIR      60  57  89 S8        29.99R
VALENTINE      CLOUDY    55  53  93 SW7       30.03R
THEDFORD       MOCLDY    53  52  99 CALM      30.04F FOG
AINSWORTH      FOG       58  58 100 CALM      30.02R VSB 3/4
O`NEILL        FOG       57  56  96 CALM      30.02R VSB 1/4
ORD            CLOUDY    63  60  90 S6        30.00F
BROKEN BOW     CLOUDY    60  60 100 SW5       30.03S FOG
VALENTINE NWR    N/A     54  54 100 S7          N/A
BUTTE            N/A     60  58  94 CALM        N/A
HALSEY           N/A     57  57  99 S3          N/A
EWING            N/A     62  61  98 CALM        N/A
$$

...OBSERVATIONS IN SOUTHWEST NEBRASKA AND FAR NORTHEAST COLORADO...

CITY           SKY/WX    TMP DP  RH WIND       PRES   REMARKS
HOLYOKE        FOG       54  52  94 CALM      30.08S VSB 1/4
IMPERIAL       FOG       49  48  97 N9        30.08R VSB 3/4
OGALLALA       CLOUDY    57  55  92 SE3       30.07S FOG
NORTH PLATTE   FOG       54  52  93 CALM      30.05F VSB 1/4
MCCOOK         PTCLDY    50  50 100 SW3       30.06R FOG
LEXINGTON      CLEAR     54  52  95 W5        30.05R FOG
STAPLETON        N/A     49  48  98 CALM        N/A
GOTHENBURG       N/A     54  52  92 NW5         N/A
CALLAWAY         N/A     54  53  98 W3          N/A
$$

...OBSERVATIONS IN CENTRAL LINCOLN COUNTY AREA...

CITY           SKY/WX    TMP DP  RH WIND       PRES   REMARKS
N.P. AIRPORT   FOG       54  52  93 CALM      30.05F VSB 1/4
N.P. DOWNTOWN    N/A     51  51 100 CALM        N/A
N.P. SOUTHEAST   N/A     50  49  95 CALM        N/A
N.P. HILLCREST   N/A     49  49 100 CALM        N/A
$$

...SOME OBSERVATIONS FROM AROUND THE REGION...

CITY           SKY/WX    TMP DP  RH WIND       PRES   REMARKS
DENVER         PTCLDY    51  47  86 SW6       30.11R
LARAMIE        CLOUDY    45  34  65 SE7       30.20R
CHEYENNE       CLOUDY    50  43  77 W9        30.14R
SCOTTSBLUFF    FOG       54  53  97 SE9       30.05S VSB 1/4
RAPID CITY     CLOUDY    53  51  93 CALM      30.00S
BISMARCK       PTCLDY    51  50  96 SE7       29.93F
PIERRE         PTCLDY    57  55  93 SE14      29.90F
SIOUX FALLS    LGT RAIN  61  60  97 N5        30.01S FOG
OMAHA          CLOUDY    66  64  93 E3        29.99F FOG
GRAND ISLAND   FOG       59  59 100 SW3       30.03R VSB 1/4
KANSAS CITY    PTCLDY    67  66  97 S8        30.01S
WICHITA        CLOUDY    72  68  87 NE3       30.03R
OKLAHOMA CITY  MOCLDY    70  69  97 S6        30.02R
DALLAS         PTCLDY    73  70  90 SE5       29.99S
AMARILLO       CLEAR     62  59  90 S9        30.09S
DODGE CITY     CLOUDY    60  58  92 E5        30.05S
HAYS           PTCLDY    61  54  77 E5        30.02F
GOODLAND       FOG       53  53 100 S5        30.05S VSB 1/2
$$




USA.gov is the U.S. government's official web portal to all federal, state and local government web resources and services.